TimeCDT,TemperatureF,Dew PointF,Humidity,Sea Level PressureIn,VisibilityMPH,Wind Direction,Wind SpeedMPH,Gust SpeedMPH,PrecipitationIn,Events,Conditions,WindDirDegrees,DateUTC
12:14 AM,59.0,55.4,88,30.05,10.0,Calm,Calm,-,N/A,,Clear,0,2013-08-12 05:14:00
12:34 AM,59.0,55.4,88,30.05,7.0,Calm,Calm,-,N/A,,Mostly Cloudy,0,2013-08-12 05:34:00
12:54 AM,59.0,55.4,88,30.05,10.0,Calm,Calm,-,N/A,,Mostly Cloudy,0,2013-08-12 05:54:00
1:14 AM,59.0,55.4,88,30.05,10.0,Calm,Calm,-,N/A,,Scattered Clouds,0,2013-08-12 06:14:00
1:34 AM,55.4,55.4,100,30.05,10.0,Calm,Calm,-,N/A,,Clear,0,2013-08-12 06:34:00
1:54 AM,55.4,55.4,100,30.05,10.0,Calm,Calm,-,N/A,,Scattered Clouds,0,2013-08-12 06:54:00
2:14 AM,55.4,55.4,100,30.05,10.0,Calm,Calm,-,N/A,,Scattered Clouds,0,2013-08-12 07:14:00
2:34 AM,55.4,53.6,94,30.05,10.0,Calm,Calm,-,N/A,,Scattered Clouds,0,2013-08-12 07:34:00
2:54 AM,55.4,53.6,94,30.04,10.0,Calm,Calm,-,N/A,,Scattered Clouds,0,2013-08-12 07:54:00
3:14 AM,55.4,53.6,94,30.05,10.0,Calm,Calm,-,N/A,,Scattered Clouds,0,2013-08-12 08:14:00
3:34 AM,55.4,53.6,94,30.05,10.0,Calm,Calm,-,N/A,,Mostly Cloudy,0,2013-08-12 08:34:00
3:54 AM,55.4,53.6,94,30.04,10.0,Calm,Calm,-,N/A,,Scattered Clouds,0,2013-08-12 08:54:00
4:14 AM,55.4,53.6,94,30.04,10.0,Calm,Calm,-,N/A,,Clear,0,2013-08-12 09:14:00
4:34 AM,55.4,53.6,94,30.04,10.0,Calm,Calm,-,N/A,,Clear,0,2013-08-12 09:34:00
4:54 AM,53.6,51.8,94,30.04,7.0,Calm,Calm,-,N/A,,Clear,0,2013-08-12 09:54:00
5:14 AM,53.6,51.8,94,30.04,10.0,Calm,Calm,-,N/A,,Clear,0,2013-08-12 10:14:00
5:34 AM,53.6,51.8,94,30.04,10.0,Calm,Calm,-,N/A,,Clear,0,2013-08-12 10:34:00
5:54 AM,53.6,51.8,94,30.04,10.0,Calm,Calm,-,N/A,,Clear,0,2013-08-12 10:54:00
6:14 AM,51.8,50.0,94,30.05,10.0,Calm,Calm,-,N/A,,Clear,0,2013-08-12 11:14:00
6:34 AM,53.6,51.8,94,30.05,10.0,Calm,Calm,-,N/A,,Clear,0,2013-08-12 11:34:00
6:54 AM,53.6,51.8,94,30.06,10.0,Calm,Calm,-,N/A,,Clear,0,2013-08-12 11:54:00
7:14 AM,55.4,53.6,94,30.05,10.0,Calm,Calm,-,N/A,,Clear,0,2013-08-12 12:14:00
7:34 AM,55.4,55.4,100,30.05,10.0,Calm,Calm,-,N/A,,Clear,0,2013-08-12 12:34:00
7:54 AM,59.0,55.4,88,30.05,10.0,Calm,Calm,-,N/A,,Clear,0,2013-08-12 12:54:00
8:14 AM,60.8,55.4,82,30.06,10.0,Calm,Calm,-,N/A,,Clear,0,2013-08-12 13:14:00
8:34 AM,62.6,59.0,88,30.06,10.0,Calm,Calm,-,N/A,,Clear,0,2013-08-12 13:34:00
8:54 AM,64.4,59.0,83,30.06,10.0,NNW,6.9,-,N/A,,Clear,330,2013-08-12 13:54:00
9:14 AM,66.2,55.4,68,30.05,10.0,NNW,6.9,-,N/A,,Clear,340,2013-08-12 14:14:00
9:34 AM,69.8,57.2,64,30.05,10.0,NNW,5.8,-,N/A,,Clear,340,2013-08-12 14:34:00
9:54 AM,69.8,55.4,60,30.05,10.0,NNW,9.2,-,N/A,,Clear,330,2013-08-12 14:54:00
10:14 AM,69.8,53.6,56,30.06,10.0,NW,9.2,-,N/A,,Clear,320,2013-08-12 15:14:00
10:34 AM,69.8,51.8,53,30.05,10.0,NNW,6.9,-,N/A,,Clear,340,2013-08-12 15:34:00
10:54 AM,71.6,53.6,53,30.05,10.0,NW,15.0,18.4,N/A,,Clear,310,2013-08-12 15:54:00
11:14 AM,73.4,53.6,50,30.06,10.0,NNW,13.8,17.3,N/A,,Clear,330,2013-08-12 16:14:00
11:34 AM,71.6,51.8,50,30.06,10.0,NNW,9.2,23.0,N/A,,Clear,330,2013-08-12 16:34:00
11:54 AM,73.4,51.8,47,30.06,10.0,NNW,8.1,18.4,N/A,,Clear,340,2013-08-12 16:54:00
12:14 PM,73.4,51.8,47,30.06,10.0,NW,10.4,-,N/A,,Clear,320,2013-08-12 17:14:00
12:34 PM,75.2,51.8,44,30.06,10.0,NNW,12.7,19.6,N/A,,Clear,330,2013-08-12 17:34:00
12:54 PM,75.2,51.8,44,30.05,10.0,NNW,11.5,19.6,N/A,,Clear,340,2013-08-12 17:54:00
1:14 PM,75.2,50.0,41,30.06,10.0,North,11.5,24.2,N/A,,Clear,350,2013-08-12 18:14:00
1:34 PM,75.2,51.8,44,30.06,10.0,NNW,11.5,20.7,N/A,,Clear,340,2013-08-12 18:34:00
1:54 PM,75.2,50.0,41,30.05,10.0,NW,16.1,20.7,N/A,,Clear,320,2013-08-12 18:54:00
2:14 PM,75.2,50.0,41,30.05,10.0,NNW,12.7,21.9,N/A,,Clear,340,2013-08-12 19:14:00
2:34 PM,75.2,50.0,41,30.05,10.0,NW,15.0,-,N/A,,Clear,320,2013-08-12 19:34:00
2:54 PM,75.2,48.2,38,30.04,10.0,WNW,15.0,20.7,N/A,,Clear,300,2013-08-12 19:54:00
3:14 PM,75.2,50.0,41,30.04,10.0,NW,12.7,21.9,N/A,,Scattered Clouds,320,2013-08-12 20:14:00
3:34 PM,75.2,50.0,41,30.04,10.0,NW,13.8,19.6,N/A,,Scattered Clouds,310,2013-08-12 20:34:00
3:54 PM,75.2,50.0,41,30.04,10.0,NW,11.5,20.7,N/A,,Mostly Cloudy,310,2013-08-12 20:54:00
4:14 PM,71.6,51.8,50,30.05,10.0,WNW,15.0,26.5,N/A,,Overcast,300,2013-08-12 21:14:00
4:33 PM,69.8,53.6,56,30.05,10.0,WNW,9.2,-,N/A,,Overcast,300,2013-08-12 21:33:00
4:54 PM,69.8,50.0,49,30.05,10.0,NW,11.5,-,N/A,,Scattered Clouds,320,2013-08-12 21:54:00
5:14 PM,71.6,51.8,50,30.04,10.0,NNW,8.1,-,N/A,,Scattered Clouds,330,2013-08-12 22:14:00
5:34 PM,71.6,51.8,50,30.04,10.0,NNW,12.7,-,N/A,,Mostly Cloudy,330,2013-08-12 22:34:00
5:54 PM,73.4,53.6,50,30.04,10.0,NW,8.1,-,N/A,,Mostly Cloudy,310,2013-08-12 22:54:00
6:14 PM,73.4,53.6,50,30.04,10.0,NW,6.9,-,N/A,,Mostly Cloudy,320,2013-08-12 23:14:00
6:34 PM,71.6,53.6,53,30.04,10.0,NW,10.4,-,N/A,,Scattered Clouds,320,2013-08-12 23:34:00
6:54 PM,69.8,53.6,56,30.04,10.0,NNW,3.5,-,N/A,,Scattered Clouds,330,2013-08-12 23:54:00
7:14 PM,69.8,53.6,56,30.04,10.0,NNW,5.8,-,N/A,,Scattered Clouds,330,2013-08-13 00:14:00
7:34 PM,69.8,50.0,49,30.04,10.0,NNW,5.8,-,N/A,,Scattered Clouds,340,2013-08-13 00:34:00
7:55 PM,68.0,50.0,52,30.04,10.0,Calm,Calm,-,N/A,,Clear,0,2013-08-13 00:55:00
8:14 PM,64.4,50.0,59,30.05,10.0,Calm,Calm,-,N/A,,Clear,0,2013-08-13 01:14:00
8:34 PM,62.6,50.0,63,30.05,10.0,Calm,Calm,-,N/A,,Clear,0,2013-08-13 01:34:00
8:54 PM,60.8,50.0,68,30.07,10.0,NE,3.5,-,N/A,,Clear,40,2013-08-13 01:54:00
9:14 PM,60.8,50.0,68,30.08,10.0,NE,3.5,-,N/A,,Clear,50,2013-08-13 02:14:00
9:35 PM,60.8,51.8,72,30.09,10.0,Calm,Calm,-,N/A,,Clear,0,2013-08-13 02:35:00
9:54 PM,59.0,50.0,72,30.09,10.0,Calm,Calm,-,N/A,,Clear,0,2013-08-13 02:54:00
10:15 PM,59.0,51.8,77,30.10,10.0,ENE,3.5,-,N/A,,Clear,60,2013-08-13 03:15:00
10:34 PM,59.0,51.8,77,30.11,10.0,ENE,3.5,-,N/A,,Clear,60,2013-08-13 03:34:00
10:54 PM,57.2,51.8,82,30.11,10.0,Calm,Calm,-,N/A,,Scattered Clouds,0,2013-08-13 03:54:00
11:15 PM,55.4,51.8,88,30.11,10.0,Calm,Calm,-,N/A,,Scattered Clouds,0,2013-08-13 04:15:00
11:34 PM,55.4,51.8,88,30.12,10.0,Calm,Calm,-,N/A,,Clear,0,2013-08-13 04:34:00
11:55 PM,55.4,51.8,88,30.13,10.0,Calm,Calm,-,N/A,,Scattered Clouds,0,2013-08-13 04:55:00